Ashland, MO

11:04 PM CST on February 06, 2016 (GMT -0600)
Columbia Regional

Weather History for KCOU - September, 2012

Change the Weather History Date:

Sunday, September 9, 2012

  Actual Average Record
Temperature  
Mean Temperature 65 °F 71 °F  
Max Temperature 76 °F 82 °F 99 °F (1925)
Min Temperature 54 °F 60 °F 44 °F (1943)
Degree Days  
Heating Degree Days 0 1  
Month to date heating degree days 0 3  
Since 1 July heating degree days 0 5  
Cooling Degree Days 0 6  
Month to date cooling degree days 101 67  
Year to date cooling degree days 1824 1150  
Growing Degree Days 14 (Base 50)    
Moisture  
Dew Point 50 °F    
Average Humidity 61    
Maximum Humidity 83    
Minimum Humidity 38    
Precipitation  
Precipitation 0.00 in 0.14 in 1.64 in (1922)
Month to date precipitation 1.12 1.18  
Year to date precipitation 23.95 30.93  
Snow  
Snow 0.00 in 0.00 in 0.00 in (2013)
Month to date snowfall 0.0 0.0  
Since 1 July snowfall 0.0 0.0  
Since 1 September snowfall 0.0 0.0  
Snow Depth 0.00 in    
Sea Level Pressure  
Sea Level Pressure 30.09 in    
Wind  
Wind Speed 9 mph (North)    
Max Wind Speed 20 mph    
Max Gust Speed 25 mph    
Visibility 10 miles    
Events      
T = Trace of Precipitation, MM = Missing Value Source: NWS Daily Summary

Daily Weather History Graph

Daily Weather History Graph

Search for Another Location

Airport or City:

Trip Planner

Search our weather history database for the weather conditions in past years. The results will help you decide how hot, cold, wet, or windy it might be!

Date:

Astronomy

Sep. 09, 2012 Rise Set
Actual Time 6:45 AM CDT 7:25 PM CDT
Civil Twilight 6:18 AM CDT 7:52 PM CDT
Nautical Twilight 5:46 AM CDT 8:24 PM CDT
Astronomical Twilight 5:14 AM CDT 8:56 PM CDT
Moon 12:17 AM CDT (9/9) 3:08 PM CDT (9/9)
Length of Visible Light 13h 34m
Length of Day
12h 40m
Last Quarter, 39% of the Moon is Illuminated
Sep 9
Last Quarter
Sep 15
New
Sep 22
First Quarter
Sep 29
Full
Oct 8
Last Quarter

Hourly Weather History & Observations

Time (CDT) Temp. Dew Point Humidity Pressure Visibility Wind Dir Wind Speed Gust Speed Precip Events Conditions
12:54 AM 63.0 °F 50.0 °F 63% 29.97 in 10.0 mi WSW 9.2 mph - N/A   Clear
1:54 AM 62.1 °F 50.0 °F 65% 29.96 in 10.0 mi WSW 10.4 mph - N/A   Clear
2:54 AM 61.0 °F 50.0 °F 67% 29.97 in 10.0 mi West 6.9 mph - N/A   Clear
3:54 AM 57.9 °F 50.0 °F 75% 29.99 in 10.0 mi WNW 5.8 mph - N/A   Clear
4:54 AM 57.0 °F 50.0 °F 77% 30.00 in 10.0 mi NW 5.8 mph - N/A   Clear
5:54 AM 55.9 °F 50.0 °F 80% 30.02 in 10.0 mi North 8.1 mph - N/A   Clear
6:54 AM 55.0 °F 50.0 °F 83% 30.06 in 10.0 mi North 8.1 mph - N/A   Clear
7:54 AM 59.0 °F 51.1 °F 75% 30.09 in 10.0 mi North 8.1 mph - N/A   Clear
8:54 AM 64.0 °F 51.1 °F 63% 30.10 in 10.0 mi North 9.2 mph - N/A   Clear
9:54 AM 66.9 °F 51.1 °F 57% 30.13 in 10.0 mi North 12.7 mph 19.6 mph N/A   Clear
10:54 AM 69.8 °F 51.8 °F 53% 30.15 in 10.0 mi North 12.7 mph 18.4 mph N/A   Clear
11:54 AM 72.0 °F 50.0 °F 46% 30.14 in 10.0 mi NNW 13.8 mph - N/A   Clear
12:54 PM 72.0 °F 50.0 °F 46% 30.13 in 10.0 mi North 11.5 mph 21.9 mph N/A   Clear
1:54 PM 73.9 °F 48.0 °F 40% 30.13 in 10.0 mi NNE 11.5 mph - N/A   Clear
2:54 PM 75.0 °F 48.9 °F 40% 30.11 in 7.0 mi NNE 12.7 mph 19.6 mph N/A   Clear
3:54 PM 75.0 °F 48.9 °F 40% 30.11 in 10.0 mi North 12.7 mph 19.6 mph N/A   Clear
4:54 PM 75.9 °F 48.9 °F 38% 30.11 in 10.0 mi NNE 11.5 mph - N/A   Clear
5:54 PM 75.0 °F 50.0 °F 41% 30.11 in 10.0 mi NNE 11.5 mph - N/A   Clear
6:54 PM 72.0 °F 50.0 °F 46% 30.12 in 10.0 mi NNE 5.8 mph - N/A   Clear
7:54 PM 66.9 °F 51.1 °F 57% 30.12 in 10.0 mi NNE 4.6 mph - N/A   Clear
8:54 PM 66.0 °F 50.0 °F 56% 30.14 in 10.0 mi NNE 4.6 mph - N/A   Clear
9:54 PM 63.0 °F 51.1 °F 65% 30.15 in 10.0 mi ENE 4.6 mph - N/A   Clear
10:54 PM 61.0 °F 51.1 °F 70% 30.16 in 10.0 mi ENE 5.8 mph - N/A   Clear
11:54 PM 60.1 °F 51.1 °F 72% 30.15 in 10.0 mi ENE 6.9 mph - N/A   Clear